{"data":{"norad_id":56014,"intl_designator":"2023-042AE","name":"STARLINK-5942","alt_names":[],"object_type":"PAYLOAD","status":"ACTIVE","operator":null,"country":"US","launch_date":"2023-03-24","launch_site_code":"AFETR","launch_vehicle":null,"mission":null,"orbit_class":"UNKNOWN","rcs_meters":null,"size_class":null,"mass_kg":null,"dimensions":null,"purposes":["comms"],"wikipedia_slug":null,"has_3d_model":false,"image_url":null,"decayed_at":null,"tle_current":{"epoch":"2026-09-20T01:34:42.947904Z","epoch_age_seconds":143593,"freshness":"FRESH","line1":"1 56014U 23042AE  26263.06577486  .00000607  00000+0  31593-4 0  9996","line2":"2 56014  43.0051  27.4275 0001493 272.4058  87.6623 15.27575600192768","mean_motion":15.275756,"eccentricity":0.0001493,"inclination_deg":43.0051,"raan_deg":27.4275,"arg_perigee_deg":272.4058,"mean_anomaly_deg":87.6623,"bstar":3.1593e-5,"rev_number":19276,"period_min":94.26702023782,"perigee_km":482.03789420297,"apogee_km":484.08664830537,"semimajor_km":6861.1992712542,"source":"CELESTRAK","updated_at":"2026-09-21T09:00:33.354947Z"}}}